W4SNA-2 Weather Reports


time (UTC)temp
C
wind
direction
speed
KPH
gust
KPH
rain 1hr
cm
rain 24hr
cm
rain mn
cm
humidity
%
barometer
mb
20220124111300 0 328 4.8 9.7 0.00 0.00 0.00 62 970.4
20220124110800 0 0 0.0 6.4 0.00 0.00 0.00 62 970.4
20220124110305 0 0 0.0 6.4 0.00 0.00 0.00 62 970.3
20220124105800 0 0 0.0 3.2 0.00 0.00 0.00 62 970.3
20220124105026 0 0 0.0 6.4 0.00 0.00 0.00 62 970.2
20220124104530 0 0 0.0 6.4 0.00 0.00 0.00 62 970.2
20220124104026 0 0 0.0 8.0 0.00 0.00 0.00 62 970.1
20220124103526 0 0 0.0 8.0 0.00 0.00 0.00 63 970.2
20220124102617 0 0 0.0 6.4 0.00 0.00 0.00 63 970.0
20220124102122 0 342 1.6 6.4 0.00 0.00 0.00 64 969.8
20220124101620 0 342 3.2 6.4 0.00 0.00 0.00 64 969.6
20220124101122 0 344 3.2 6.4 0.00 0.00 0.00 65 969.6
20220124100604 0 344 3.2 11.3 0.00 0.00 0.00 65 969.5
20220124100106 0 354 6.4 11.3 0.00 0.00 0.00 64 969.6
20220124095604 0 345 6.4 9.7 0.00 0.00 0.00 64 969.6
20220124095104 0 333 3.2 9.7 0.00 0.00 0.00 64 969.7
20220124094605 0 341 4.8 9.7 0.00 0.00 0.00 64 969.7
20220124093741 0 335 6.4 14.5 0.00 0.00 0.00 64 969.8
20220124092745 0 349 8.0 16.1 0.00 0.00 0.00 64 969.7
20220124092244 0 335 6.4 9.7 0.00 0.00 0.00 63 969.7
20220124091744 0 349 6.4 9.7 0.00 0.00 0.00 63 969.8
20220124091244 0 333 6.4 9.7 0.00 0.00 0.00 63 969.7
20220124090744 0 338 6.4 12.9 0.00 0.00 0.00 63 969.7
20220124090244 0 338 6.4 12.9 0.00 0.00 0.00 63 969.7
20220124085748 0 335 4.8 11.3 0.00 0.00 0.00 63 969.8
20220124085244 0 343 4.8 11.3 0.00 0.00 0.00 63 970.0
20220124084600 0 334 3.2 12.9 0.00 0.00 0.00 63 970.0
20220124084053 0 335 6.4 12.9 0.00 0.00 0.00 63 969.9
20220124083557 0 331 4.8 17.7 0.00 0.00 0.00 63 970.0
20220124083054 0 333 4.8 17.7 0.00 0.00 0.00 63 969.9
20220124082602 0 320 4.8 12.9 0.00 0.00 0.00 63 969.9
20220124081955 0 327 3.2 9.7 0.00 0.00 0.00 64 969.9
20220124081455 0 322 1.6 12.9 0.00 0.00 0.00 64 969.9
20220124081007 0 328 4.8 12.9 0.00 0.00 0.00 64 970.0
20220124080457 0 326 4.8 17.7 0.00 0.00 0.00 64 969.9
20220124075959 0 324 6.4 17.7 0.00 0.00 0.00 64 969.7
20220124075254 0 328 6.4 14.5 0.00 0.00 0.00 65 969.8
20220124074808 0 313 3.2 12.9 0.00 0.00 0.00 65 969.7
20220124074254 0 332 3.2 9.7 0.00 0.00 0.00 66 969.6
20220124073755 0 0 0.0 9.7 0.00 0.00 0.00 66 969.7
20220124073255 0 321 1.6 9.7 0.00 0.00 0.00 66 969.5
20220124072754 0 322 1.6 8.0 0.00 0.00 0.00 66 969.5
20220124072254 0 322 3.2 8.0 0.00 0.00 0.00 66 969.5
20220124071800 0 321 1.6 8.0 0.00 0.00 0.00 66 969.4
20220124071254 0 324 1.6 6.4 0.00 0.00 0.00 66 969.3
20220124070558 0 327 1.6 8.0 0.00 0.00 0.00 66 969.3
20220124070034 0 330 1.6 8.0 0.00 0.00 0.00 65 969.2
20220124065538 0 331 3.2 11.3 0.00 0.00 0.00 65 969.2
20220124065034 0 312 3.2 11.3 0.00 0.00 0.00 64 969.3
20220124064534 0 297 3.2 17.7 0.00 0.00 0.00 64 969.4
20220124064034 0 328 3.2 17.7 0.00 0.00 0.00 64 969.4
20220124063534 0 341 6.4 14.5 0.00 0.00 0.00 64 969.3
20220124063000 0 335 8.0 14.5 0.00 0.00 0.00 64 969.3
20220124062456 0 324 6.4 19.3 0.00 0.00 0.00 64 969.3
20220124062010 0 318 4.8 20.9 0.00 0.00 0.00 64 969.3
20220124061456 0 316 6.4 20.9 0.00 0.00 0.00 64 969.3
20220124061000 0 338 6.4 19.3 0.00 0.00 0.00 64 969.4
20220124060456 0 322 4.8 19.3 0.00 0.00 0.00 64 969.5
20220124055600 0 312 4.8 20.9 0.00 0.00 0.00 63 969.5
20220124055059 0 326 4.8 19.3 0.00 0.00 0.00 63 969.5
20220124054600 0 323 8.0 19.3 0.00 0.00 0.00 64 969.5
20220124054100 0 322 6.4 17.7 0.00 0.00 0.00 63 969.5
20220124053612 0 311 4.8 16.1 0.00 0.00 0.00 63 969.5
20220124052910 0 319 3.2 17.7 0.00 0.00 0.00 62 969.6
20220124052411 0 321 3.2 17.7 0.00 0.00 0.00 62 969.6
20220124051910 0 308 4.8 17.7 0.00 0.00 0.00 62 969.7
20220124051411 0 356 1.6 17.7 0.00 0.00 0.00 61 969.7
20220124050912 0 334 3.2 17.7 0.00 0.00 0.00 61 969.8
20220124050410 1 335 3.2 17.7 0.00 0.00 0.00 60 969.7
20220124045525 1 335 1.6 12.9 0.00 0.00 0.00 59 969.8
20220124045025 1 349 1.6 14.5 0.00 0.00 0.00 59 969.8
20220124044525 1 339 3.2 14.5 0.00 0.00 0.00 59 969.7
20220124044025 1 328 1.6 12.9 0.00 0.00 0.00 58 969.6
20220124043525 1 0 0.0 9.7 0.00 0.00 0.00 58 969.8
20220124043025 1 324 4.8 9.7 0.00 0.00 0.00 57 969.7
20220124042531 1 325 3.2 9.7 0.00 0.00 0.00 57 969.8
20220124042025 1 333 3.2 14.5 0.00 0.00 0.00 57 969.7
20220124041525 1 327 3.2 16.1 0.00 0.00 0.00 56 969.8
20220124041025 1 324 3.2 16.1 0.00 0.00 0.00 56 969.8
20220124040525 1 286 3.2 14.5 0.00 0.00 0.00 56 969.9
20220124040025 1 283 1.6 12.9 0.00 0.00 0.00 55 969.9
20220124035525 1 0 0.0 11.3 0.00 0.00 0.00 56 969.8
20220124035025 2 270 1.6 11.3 0.00 0.00 0.00 55 969.8
20220124034525 2 298 3.2 12.9 0.00 0.00 0.00 55 969.8
20220124034025 2 293 4.8 16.1 0.00 0.00 0.00 55 969.7
20220124033525 2 278 4.8 19.3 0.00 0.00 0.00 55 969.7
20220124033025 2 298 4.8 19.3 0.00 0.00 0.00 55 969.6
20220124032525 2 313 6.4 19.3 0.00 0.00 0.00 55 969.3
20220124031626 2 310 6.4 17.7 0.00 0.00 0.00 55 969.4
20220124031126 2 311 4.8 17.7 0.00 0.00 0.00 55 969.5
20220124030634 2 307 6.4 17.7 0.00 0.00 0.00 54 969.4
20220124030126 2 309 3.2 17.7 0.00 0.00 0.00 54 969.3
20220124025628 2 316 3.2 16.1 0.00 0.00 0.00 54 969.3
20220124025126 2 315 3.2 19.3 0.00 0.00 0.00 54 969.5
20220124024633 2 318 6.4 19.3 0.00 0.00 0.00 54 969.4
20220124024128 2 311 4.8 14.5 0.00 0.00 0.00 54 969.5
20220124023626 2 317 4.8 19.3 0.00 0.00 0.00 54 969.5
20220124023126 2 322 6.4 19.3 0.00 0.00 0.00 54 969.7
20220124022628 2 302 4.8 20.9 0.00 0.00 0.00 53 969.5
20220124022133 2 319 8.0 20.9 0.00 0.00 0.00 53 969.5
20220124021627 2 310 4.8 16.1 0.00 0.00 0.00 52 969.5
20220124021126 2 294 4.8 17.7 0.00 0.00 0.00 51 969.5
20220124020627 3 279 4.8 17.7 0.00 0.00 0.00 50 969.3
20220124020127 3 281 3.2 17.7 0.00 0.00 0.00 49 969.4
20220124015627 3 286 6.4 17.7 0.00 0.00 0.00 49 969.4
20220124015127 3 287 1.6 22.5 0.00 0.00 0.00 49 969.3
20220124014627 3 248 6.4 22.5 0.00 0.00 0.00 49 969.6
20220124014127 3 299 4.8 16.1 0.00 0.00 0.00 49 969.5
20220124013517 3 306 4.8 12.9 0.00 0.00 0.00 49 969.3
20220124013017 3 284 4.8 12.9 0.00 0.00 0.00 51 969.4
20220124012130 3 290 3.2 16.1 0.00 0.00 0.00 52 969.5
20220124011630 3 264 3.2 16.1 0.00 0.00 0.00 52 969.5
20220124011130 3 304 1.6 12.9 0.00 0.00 0.00 52 969.7
20220124010630 3 0 0.0 16.1 0.00 0.00 0.00 51 969.6
20220124010130 3 264 1.6 20.9 0.00 0.00 0.00 52 969.8
20220124005630 3 251 8.0 20.9 0.00 0.00 0.00 51 969.7
20220124004648 3 228 3.2 17.7 0.00 0.00 0.00 53 969.7
20220124004148 3 228 4.8 19.3 0.00 0.00 0.00 53 969.6
20220124003649 2 218 6.4 19.3 0.00 0.00 0.00 54 969.6
20220124003148 2 198 1.6 19.3 0.00 0.00 0.00 57 969.3
20220124002648 2 200 1.6 19.3 0.00 0.00 0.00 57 969.4
20220124002148 2 196 3.2 14.5 0.00 0.00 0.00 57 969.3
20220124001648 2 199 4.8 14.5 0.00 0.00 0.00 57 969.3
20220124001148 2 193 1.6 11.3 0.00 0.00 0.00 58 969.4
20220124000648 2 202 1.6 12.9 0.00 0.00 0.00 58 969.5
20220124000148 2 207 3.2 12.9 0.00 0.00 0.00 58 969.5
20220123235359 2 198 3.2 16.1 0.00 0.00 0.00 59 969.4
20220123234859 2 201 4.8 16.1 0.00 0.00 0.00 59 969.4
20220123234401 2 199 6.4 16.1 0.00 0.00 0.00 59 969.4
20220123233859 2 204 4.8 14.5 0.00 0.00 0.00 58 969.5
20220123233210 2 195 8.0 16.1 0.00 0.00 0.00 57 969.4
20220123232709 2 195 4.8 12.9 0.00 0.00 0.00 56 969.4
20220123232210 2 195 8.0 14.5 0.00 0.00 0.00 56 969.5
20220123231709 2 200 4.8 16.1 0.00 0.00 0.00 55 969.3
20220123231209 2 190 4.8 16.1 0.00 0.00 0.00 55 969.3
20220123230709 2 199 4.8 14.5 0.00 0.00 0.00 54 969.4
20220123230209 2 194 6.4 14.5 0.00 0.00 0.00 53 969.3
20220123225709 2 192 4.8 12.9 0.00 0.00 0.00 53 969.4
20220123224927 2 197 8.0 14.5 0.00 0.00 0.00 52 969.2
20220123224430 2 196 6.4 14.5 0.00 0.00 0.00 52 969.2
20220123223936 2 194 4.8 14.5 0.00 0.00 0.00 52 969.1
20220123223431 2 195 4.8 14.5 0.00 0.00 0.00 53 969.2
20220123222927 2 194 6.4 12.9 0.00 0.00 0.00 52 969.1
20220123222427 2 186 3.2 14.5 0.00 0.00 0.00 52 969.1
20220123221927 3 191 3.2 14.5 0.00 0.00 0.00 51 969.2
20220123220955 3 191 8.0 16.1 0.00 0.00 0.00 50 969.0
20220123220455 3 192 1.6 16.1 0.00 0.00 0.00 51 968.9
20220123215956 3 199 4.8 16.1 0.00 0.00 0.00 49 969.0
20220123215455 3 0 0.0 16.1 0.00 0.00 0.00 50 969.0
20220123214956 3 199 6.4 16.1 0.00 0.00 0.00 48 969.0
20220123214455 3 191 1.6 16.1 0.00 0.00 0.00 49 969.0
20220123213955 3 196 8.0 14.5 0.00 0.00 0.00 48 969.2
20220123213455 4 0 0.0 8.0 0.00 0.00 0.00 49 969.3
20220123212642 4 192 8.0 17.7 0.00 0.00 0.00 47 969.1
20220123212142 4 194 3.2 17.7 0.00 0.00 0.00 48 969.1
20220123211642 4 201 3.2 17.7 0.00 0.00 0.00 48 969.2
20220123211142 4 193 4.8 17.7 0.00 0.00 0.00 48 969.2
20220123210643 5 189 3.2 14.5 0.00 0.00 0.00 48 969.2
20220123210142 5 194 3.2 14.5 0.00 0.00 0.00 49 969.4
20220123205646 4 192 1.6 11.3 0.00 0.00 0.00 51 969.5
20220123205144 4 0 0.0 11.3 0.00 0.00 0.00 50 969.6
20220123204642 4 198 1.6 16.1 0.00 0.00 0.00 50 969.7
20220123204142 3 0 0.0 16.1 0.00 0.00 0.00 51 969.7
20220123203645 4 0 0.0 6.4 0.00 0.00 0.00 49 969.7
20220123203142 4 0 0.0 6.4 0.00 0.00 0.00 50 969.7
20220123202644 3 0 0.0 4.8 0.00 0.00 0.00 51 969.8
20220123202143 3 0 0.0 6.4 0.00 0.00 0.00 51 969.9
20220123201642 3 0 0.0 12.9 0.00 0.00 0.00 52 969.9
20220123201142 3 0 0.0 12.9 0.00 0.00 0.00 49 970.1
20220123195946 3 0 0.0 9.7 0.00 0.00 0.00 48 970.2
20220123195446 3 0 0.0 9.7 0.00 0.00 0.00 49 970.1
20220123194642 3 0 0.0 12.9 0.00 0.00 0.00 49 970.3
20220123194144 3 0 0.0 12.9 0.00 0.00 0.00 48 970.3
20220123193644 4 205 1.6 12.9 0.00 0.00 0.00 48 970.2
20220123193141 4 203 3.2 11.3 0.00 0.00 0.00 47 970.2
20220123192646 5 0 0.0 3.2 0.00 0.00 0.00 48 970.4
20220123192143 5 0 0.0 12.9 0.00 0.00 0.00 48 970.4
20220123191641 5 0 0.0 14.5 0.00 0.00 0.00 48 970.4
20220123191141 5 0 0.0 14.5 0.00 0.00 0.00 47 970.3
20220123190233 6 0 0.0 4.8 0.00 0.00 0.00 44 970.7
20220123185730 6 0 0.0 9.7 0.00 0.00 0.00 46 970.5
20220123185231 6 0 0.0 9.7 0.00 0.00 0.00 46 970.5
20220123184731 5 0 0.0 4.8 0.00 0.00 0.00 46 970.6
20220123184200 5 200 3.2 20.9 0.00 0.00 0.00 44 970.7
20220123183700 6 0 0.0 9.7 0.00 0.00 0.00 45 970.7
20220123183200 6 182 1.6 11.3 0.00 0.00 0.00 44 970.6
20220123182700 6 0 0.0 11.3 0.00 0.00 0.00 47 970.8
20220123182200 5 0 0.0 6.4 0.00 0.00 0.00 47 970.9
20220123181458 5 202 1.6 14.5 0.00 0.00 0.00 47 971.2
20220123181001 5 0 0.0 14.5 0.00 0.00 0.00 48 971.1
20220123180501 5 187 1.6 14.5 0.00 0.00 0.00 49 971.1
20220123180002 4 194 4.8 14.5 0.00 0.00 0.00 49 971.4
20220123175216 3 203 1.6 19.3 0.00 0.00 0.00 50 971.8
20220123174704 3 193 6.4 19.3 0.00 0.00 0.00 51 971.9
20220123174207 3 0 0.0 14.5 0.00 0.00 0.00 53 972.1
20220123173704 3 182 1.6 11.3 0.00 0.00 0.00 51 972.1
20220123172821 3 189 3.2 17.7 0.00 0.00 0.00 55 972.1
20220123172319 3 191 6.4 16.1 0.00 0.00 0.00 52 972.3
20220123171822 3 188 1.6 11.3 0.00 0.00 0.00 54 972.4
20220123171319 2 185 1.6 11.3 0.00 0.00 0.00 55 972.5
20220123170819 2 200 1.6 11.3 0.00 0.00 0.00 54 972.6
20220123170319 2 0 0.0 12.9 0.00 0.00 0.00 57 972.5
20220123165820 2 207 1.6 12.9 0.00 0.00 0.00 55 972.6
20220123165326 2 198 3.2 12.9 0.00 0.00 0.00 55 972.8
20220123164820 2 201 1.6 12.9 0.00 0.00 0.00 56 972.9
20220123164325 2 0 0.0 14.5 0.00 0.00 0.00 54 973.1
20220123163820 2 196 4.8 14.5 0.00 0.00 0.00 54 973.3
20220123163322 2 204 3.2 12.9 0.00 0.00 0.00 53 973.4
20220123162820 2 202 3.2 17.7 0.00 0.00 0.00 54 973.6
20220123162319 2 195 6.4 17.7 0.00 0.00 0.00 53 973.6
20220123161641 2 196 4.8 14.5 0.00 0.00 0.00 53 973.6
20220123161145 2 194 3.2 14.5 0.00 0.00 0.00 55 973.8
20220123160526 2 202 4.8 12.9 0.00 0.00 0.00 55 973.8
20220123160026 2 199 3.2 12.9 0.00 0.00 0.00 56 974.0
20220123155432 1 194 1.6 9.7 0.00 0.00 0.00 61 974.0
20220123154606 0 0 0.0 6.4 0.00 0.00 0.00 62 974.1
20220123154059 0 192 1.6 6.4 0.00 0.00 0.00 61 974.0
20220123153559 0 239 1.6 6.4 0.00 0.00 0.00 61 974.3
20220123152850 0 0 0.0 14.5 0.00 0.00 0.00 61 974.3
20220123152403 -1 266 1.6 14.5 0.00 0.00 0.00 61 974.3
20220123151852 -1 290 4.8 12.9 0.00 0.00 0.00 61 974.4
20220123151349 -1 321 4.8 16.1 0.00 0.00 0.00 62 974.5
20220123150849 -1 319 6.4 16.1 0.00 0.00 0.00 62 974.5
20220123150401 -1 313 6.4 14.5 0.00 0.00 0.00 63 974.6
20220123145853 -1 327 8.0 14.5 0.00 0.00 0.00 63 974.4
20220123145357 -1 326 9.7 14.5 0.00 0.00 0.00 63 974.6
20220123144934 -1 326 4.8 14.5 0.00 0.00 0.00 63 974.6
20220123144357 -2 331 9.7 14.5 0.00 0.00 0.00 63 974.5
20220123143730 -2 331 9.7 16.1 0.00 0.00 0.00 63 974.5
20220123143238 -2 330 8.0 16.1 0.00 0.00 0.00 63 974.5
20220123142736 -1 313 8.0 17.7 0.00 0.00 0.00 63 974.9
20220123142233 -1 328 8.0 17.7 0.00 0.00 0.00 62 974.8
20220123141730 -1 330 6.4 16.1 0.00 0.00 0.00 62 974.9
20220123141230 -1 333 8.0 16.1 0.00 0.00 0.00 62 975.0
20220123140730 -1 334 8.0 16.1 0.00 0.00 0.00 63 975.0
20220123140233 -2 320 6.4 14.5 0.00 0.00 0.00 63 975.0
20220123135730 -2 330 6.4 14.5 0.00 0.00 0.00 64 975.0
20220123135233 -2 336 8.0 14.5 0.00 0.00 0.00 65 975.2
20220123134730 -2 332 8.0 17.7 0.00 0.00 0.00 65 975.2
20220123134237 -2 328 9.7 17.7 0.00 0.00 0.00 65 975.2
20220123133730 -2 335 11.3 19.3 0.00 0.00 0.00 66 975.2
20220123133233 -2 335 11.3 19.3 0.00 0.00 0.00 66 975.2
20220123132729 -2 334 11.3 19.3 0.00 0.00 0.00 65 975.3
20220123132229 -2 337 12.9 19.3 0.00 0.00 0.00 66 975.2
20220123131729 -2 334 12.9 19.3 0.00 0.00 0.00 65 975.3
20220123130457 -3 332 12.9 17.7 0.00 0.00 0.00 66 975.3
20220123130008 -3 333 11.3 20.9 0.00 0.00 0.00 66 975.5
20220123125500 -3 335 11.3 20.9 0.00 0.00 0.00 65 975.5
20220123124956 -3 332 12.9 17.7 0.00 0.00 0.00 65 975.5
20220123124456 -3 334 11.3 17.7 0.00 0.00 0.00 65 975.5
20220123123956 -2 335 11.3 17.7 0.00 0.00 0.00 65 975.6
20220123123459 -3 337 12.9 17.7 0.00 0.00 0.00 65 975.6
20220123123002 -3 333 12.9 19.3 0.00 0.00 0.00 64 975.6
20220123122456 -3 336 12.9 19.3 0.00 0.00 0.00 64 975.7
20220123121956 -3 340 12.9 20.9 0.00 0.00 0.00 65 975.7
20220123121506 -3 336 12.9 20.9 0.00 0.00 0.00 64 975.8
20220123120956 -2 339 14.5 20.9 0.00 0.00 0.00 63 975.8
20220123120501 -2 338 12.9 19.3 0.00 0.00 0.00 63 975.9
20220123120006 -2 334 12.9 19.3 0.00 0.00 0.00 63 975.8
20220123115459 -2 340 12.9 19.3 0.00 0.00 0.00 62 975.6
20220123115005 -2 335 12.9 19.3 0.00 0.00 0.00 62 975.7
20220123114458 -2 332 11.3 20.9 0.00 0.00 0.00 62 975.7
20220123113956 -2 337 11.3 27.4 0.00 0.00 0.00 61 975.7
20220123113500 -2 334 12.9 27.4 0.00 0.00 0.00 61 975.8
20220123113001 -2 336 14.5 20.9 0.00 0.00 0.00 61 975.7
20220123112456 -2 331 12.9 20.9 0.00 0.00 0.00 61 975.9
20220123111956 -2 330 11.3 17.7 0.00 0.00 0.00 61 975.9